User: anonymous   Login
Location: Clinton NY
(43.0598°N, 75.3602°W)
Time: 05:44:39
(UTC-04:00)
Language:

Iridium 42 - Orbit

View from above orbital plane
View from above orbital plane
View from above satellite
View from above satellite

Ground track
Ground track

The orbit data is extracted from the following two-line orbital elements,

1 25077U 97077A   16144.61202199  .00000168  00000-0  52632-4 0  9994
2 25077  86.3987 184.7944 0002480  92.7110 267.4369 14.34479748966341
Epoch (UTC): 23 May 2016 14:41:18
Eccentricity: 0.0002480
inclination: 86.3987°
perigee height: 775 km
apogee height: 778 km
right ascension of ascending node: 184.7944°
argument of perigee: 92.7110°
revolutions per day: 14.34479748
mean anomaly at epoch: 267.4369°
orbit number at epoch: 96634

The dashed part of the orbit path shows where the satellite is in the earth's shadow,  

DLR